Content
SEND FEEDBACK

Daily
Averages
Monthly
Summary
Mexico

SAN MARTINIANO, QUINTANA ROO


Home > North America > Mexico > Quintana Roo
Elevation: 49 feet     Latitude: 20 47N     Longitude: 087 16W

WEATHER
 
SELECT A DAY
Number of Records: 196,696;   Date Range: 2/21/06 - 9/3/14
 
SHARE

PRINT THIS DATA

[ ← Previous Day ]
WEATHER ALMANAC - FEBRUARY 2, 2014
[ Next Day → ]
[ °C ]   °F
Weather ElementAverageHighLow
Temperature72.3 °F86 °F (2:35 pm)62.6 °F (5:55 am)
Dewpoint24.3 °F68 °F (11:55 am) (7:00 pm)
Humidity52 %94 % (9:15 pm)31 % (4:55 pm)
Barometer30.12 in30.19 in (9:35 am)30.07 in (2:55 pm)
Wind Speed2.7 mph8.1 mph (12:55 pm)
Weather ElementAverage
Visibility6.2 mi
Wind DirectionENE (77.7 °)

Weather ElementTotal
Precipitation0.10 in
Cooling Degree Days9.3 (Base 65)
Growing Degree Days24.3 (Base 50)
Averaged from 71 records on February 2, 2014
WEATHER CONDITIONS BREAKOUT
WIND DIRECTION BREAKOUT
WEATHER BY HOUR - FEBRUARY 2, 2014
[ °C ]   °F
Local TimeTemperatureDewpointHumidityBarometerVisibilityWind DirectionWind SpeedGust SpeedPrecipitationEventsConditions
12:35 AM66.2 °F0.0 °F30.14 in0.2 miCalmFogFog
12:55 AM64.4 °F0.0 °F30.14 in0.2 miCalmFogFog
1:15 AM64.4 °F0.0 °F30.14 in0.2 miCalmFogFog
1:35 AM64.4 °F0.0 °F30.14 in0.2 miCalmFogFog
1:55 AM66.2 °F0.0 °F30.14 in1.0 miCalmOvercast
2:15 AM66.2 °F0.0 °F30.14 in2.0 miCalmOvercast
2:35 AM66.2 °F0.0 °F30.14 in2.0 miCalm0.01 inOvercast
2:55 AM66.2 °F0.0 °F30.14 in4.0 miCalm0.01 inHaze
3:15 AM66.2 °F0.0 °F30.14 in5.0 miCalmHaze
3:35 AM66.2 °F0.0 °F30.13 in4.0 miCalmHaze
3:55 AM66.2 °F0.0 °F30.13 in3.0 miCalmOvercast
4:15 AM66.2 °F0.0 °F30.13 in1.0 miCalmOvercast
4:35 AM66.2 °F0.0 °F30.13 in0.2 miCalmFogFog
4:55 AM64.4 °F0.0 °F30.13 in0.2 miCalmFogFog
5:15 AM64.4 °F0.0 °F30.12 in0.2 miCalmFogFog
5:35 AM64.4 °F0.0 °F30.12 in0.2 miCalmFogFog
5:55 AM62.6 °F0.0 °F30.13 in0.5 miCalm0.01 inFogFog
6:15 AM62.6 °F0.0 °F30.14 in0.2 miCalmFogFog
6:35 AM64.4 °F0.0 °F30.14 in0.2 miESE (120°)3.5 mphFogFog
6:55 AM64.4 °F0.0 °F30.14 in0.2 miCalmFogFog
7:15 AM64.4 °F0.0 °F30.15 in0.2 miESE (110°)4.6 mphFogFog
7:35 AM64.4 °F0.0 °F30.15 in0.5 miESE (120°)4.6 mphFogFog
7:55 AM66.2 °F0.0 °F30.16 in2.0 miESE (120°)3.5 mphMist
8:15 AM66.2 °F0.0 °F30.16 in1.0 miESE (120°)3.5 mphOvercast
8:35 AM68.0 °F0.0 °F30.17 in0.2 miSE (130°)5.8 mph0.01 inFogFog
8:55 AM69.8 °F0.0 °F30.17 in0.2 miSE (140°)3.5 mph0.01 inFogFog
9:15 AM69.8 °F0.0 °F30.18 in0.5 miSE (130°)3.5 mphFogFog
9:35 AM69.8 °F0.0 °F30.19 in1.0 miCalmOvercast
9:55 AM71.6 °F0.0 °F30.19 in4.0 miSSE (160°)3.5 mphHaze
10:15 AM71.6 °F0.0 °F30.19 in5.0 miSSE (150°)5.8 mphHaze
10:35 AM73.4 °F0.0 °F30.19 in4.0 miSSE (150°)4.6 mph0.01 inHaze
10:55 AM73.4 °F0.0 °F30.19 in7.0 miSSE (160°)6.9 mph0.01 inOvercast
11:15 AM77.0 °F0.0 °F30.18 in10.0 miSouth (170°)6.9 mphScattered Clouds
11:35 AM78.8 °F0.0 °F30.17 in10.0 miSSE (160°)3.5 mphScattered Clouds
11:55 AM80.6 °F68.0 °F65 %30.16 in10.0 miSouth (180°)4.6 mphMostly Cloudy
12:15 PM80.6 °F66.2 °F61 %30.15 in10.0 miSE (130°)6.9 mph0.01 inScattered Clouds
12:35 PM82.4 °F64.4 °F54 %30.14 in10.0 miESE (120°)5.8 mph0.01 inScattered Clouds
12:55 PM84.2 °F62.6 °F48 %30.13 in10.0 miESE (120°)8.1 mph0.01 inScattered Clouds
1:15 PM84.2 °F60.8 °F45 %30.12 in10.0 miSouth (180°)5.8 mphClear
1:35 PM84.2 °F60.8 °F45 %30.11 in10.0 miSouth (170°)4.6 mphClear
1:55 PM84.2 °F59.0 °F42 %30.10 in10.0 miSE (130°)4.6 mphScattered Clouds
2:15 PM84.2 °F57.2 °F40 %30.09 in10.0 miSSE (160°)5.8 mphClear
2:35 PM86.0 °F55.4 °F35 %30.08 in10.0 miSSW (200°)3.5 mphClear
2:55 PM86.0 °F55.4 °F35 %30.07 in10.0 miEast (100°)5.8 mphScattered Clouds
3:15 PM84.2 °F53.6 °F35 %30.07 in10.0 miEast (100°)3.5 mphClear
3:35 PM84.2 °F55.4 °F37 %30.07 in10.0 miESE (120°)4.6 mphClear
3:55 PM84.2 °F55.4 °F37 %30.07 in10.0 miCalmClear
4:15 PM86.0 °F53.6 °F33 %30.07 in10.0 miSE (130°)4.6 mphScattered Clouds
4:35 PM86.0 °F53.6 °F33 %30.07 in10.0 miENE (70°)6.9 mphOvercast
4:55 PM86.0 °F51.8 °F31 %30.07 in10.0 miEast (100°)8.1 mphOvercast
5:15 PM84.2 °F53.6 °F35 %30.07 in10.0 miEast (80°)6.9 mphScattered Clouds
5:35 PM84.2 °F53.6 °F35 %30.08 in10.0 miESE (120°)3.5 mphClear
5:55 PM80.6 °F53.6 °F39 %30.08 in10.0 miSE (130°)3.5 mphScattered Clouds
6:15 PM78.8 °F55.4 °F44 %30.08 in10.0 miCalmClear
6:35 PM75.2 °F59.0 °F57 %30.08 in10.0 miCalmClear
6:55 PM75.2 °F60.8 °F61 %30.09 in10.0 miSW (230°)4.6 mphClear
7:15 PM73.4 °F64.4 °F73 %30.09 in10.0 miWSW (240°)6.9 mphClear
7:35 PM71.6 °F64.4 °F78 %30.09 in10.0 miSW (230°)5.8 mphClear
7:55 PM71.6 °F64.4 °F78 %30.10 in10.0 miWSW (240°)6.9 mphClear
8:15 PM71.6 °F64.4 °F78 %30.10 in10.0 miCalmClear
8:35 PM71.6 °F64.4 °F78 %30.10 in10.0 miWNW (300°)3.5 mphClear
8:55 PM69.8 °F64.4 °F83 %30.10 in10.0 miCalmClear
9:15 PM68.0 °F66.2 °F94 %30.10 in10.0 miCalmClear
9:35 PM66.2 °F0.0 °F30.11 in10.0 miCalmClear
9:55 PM66.2 °F0.0 °F30.11 in10.0 miCalmClear
10:15 PM66.2 °F0.0 °F30.11 in10.0 miCalmScattered Clouds
10:35 PM66.2 °F0.0 °F30.11 in10.0 miCalmClear
10:55 PM66.2 °F0.0 °F30.11 in10.0 miCalmScattered Clouds
11:15 PM66.2 °F0.0 °F30.11 in10.0 miCalmClear
11:35 PM64.4 °F0.0 °F30.11 in10.0 miCalmClear
11:55 PM64.4 °F0.0 °F30.11 in7.0 miCalmClear
Hourly data recorded from KPCM, located miles away from San Martiniano, Quintana Roo







STORIES FROM OUR PARTNERS